Regional Weather Roundup
Issued by NWS Newport/Morehead, NC

Current Version | Previous Version | Graphics & Text | Print | Product List | Glossary On
Versions: 1 2 3 4 5 6 7 8 9 10 11 12 13 14 15 16 17 18 19 20 21 22 23 24 25 26 27 28 29 30 31 32 33 34 35 36 37 38 39 40 41 42 43 44 45 46 47 48 49 50
466 ASUS42 KMHX 272225 RWRMHX WEATHER ROUNDUP FOR EASTERN NORTH CAROLINA NATIONAL WEATHER SERVICE NEWPORT/MOREHEAD CITY NC 600 PM EDT FRI MAY 27 2016 NOTE: "FAIR" INDICATES FEW OR NO CLOUDS BELOW 12,000 FEET WITH NO SIGNIFICANT WEATHER AND/OR OBSTRUCTIONS TO VISIBILITY NCZ015>017-031-032-045>047-102-103-272300- NORTH COAST CITY SKY/WX TMP DP RH WIND PRES REMARKS EDENTON SUNNY 82 58 43 S13 30.12S ELIZABETH CITY SUNNY 81 57 43 S9 30.12S KITTY HAWK CLEAR 80 61 50 SE8 30.12F MANTEO NOT AVBL $$ NCZ045>047-081-094-103-104-272300- CENTRAL COAST CITY SKY/WX TMP DP RH WIND PRES REMARKS FRISCO SUNNY 79 64 60 SE7 30.14F $$ NCZ095-097-098-100-101-272300- SOUTHERN COAST CITY SKY/WX TMP DP RH WIND PRES REMARKS BEAUFORT SUNNY 78 62 57 SE9 30.13S CEDAR ISLAND NOT AVBL JACKSONVILLE SUNNY 79 58 48 SE8 30.12F PINEY ISLAND CLEAR N/A N/A N/A E8 30.13S WILMINGTON MOSUNNY 78 62 57 E8 30.13S $$ NCZ011>013-027>030-043-044-078>080-089-090>093-098-272300- COASTAL PLAIN CITY SKY/WX TMP DP RH WIND PRES REMARKS AHOSKIE SUNNY 83 60 46 S10 30.09S CLINTON SUNNY 83 57 41 SE5 30.10F ELIZABETHTOWN SUNNY 83 50 31 SE6 30.09F GOLDSBORO MOSUNNY 84 59 42 SE10 30.08S GREENVILLE SUNNY 84 61 45 SE8 30.11S HAVELOCK MOSUNNY 81 57 43 SE8 30.13F KENANSVILLE SUNNY 81 53 37 SE5 30.11F KINSTON SUNNY 84 54 34 SE12 30.11F NEW BERN SUNNY 81 57 43 SE8 30.12F RICHLANDS SUNNY 80 60 50 SE8 30.12F ROCKY MOUNT SUNNY 85 60 42 SE8 30.08F WASHINGTON SUNNY 81 59 47 SE10 30.11S WHITEVILLE SUNNY 82 54 36 S6 30.09F $$ AMZ130-135-150-152-154-156-158-170-250-252-270-ANZ085-086-088-633-658-670-272300- MARINE OBSERVATIONS STATION/POSITION TIME TEMP WIND PRES WAVE SWELL AIR SEA DIR/SP/G HT/PER HT/PER (UTC) (F) (DEG/KT/KT) (MB) (FT/S) (FT/S) CHESAPEAKE LIGHT 2200 72 170/ 19/ 20 1020.2 64 E VA BEACH 2150 69 63 180/ 6/ 6 1020.7 2/ 7 2/ 7 DUCK 2200 1019.4 2 E DUCK 2111 65 N/A 2/ 8 OREGON INLET 2200 1020.6 13E OREGON INLT 2200 72 N/A 2/ 7 2/ 7 HATTERAS CG 2200 1020.1 DIAMOND BUOY 2150 77 78 130/ 12/ 12 1020.4 2/ 4 2/ 7 CAPE LOOKOUT 2200 75 110/ 7/ 8 1019.9 BEAUFORT LAB 2200 1019.4 30 SE NEW RVR IN 2125 75 N/A 3/ 7 27 SE WRIGHTSVLE 2208 77 75 120/ 8/ 10 1019.7 5 SE WRIGHTSVLE 2208 76 75 70/ 6/ 10 1020.7 225 S CAPE HAT 2150 77 78 80/ 19/ 23 1017.1 5/ 5 2/ 8 41 SE CHARLESTON 2150 76 77 40/ 16/ 17 1018.1 3/ 7 2/ 7 $$

USA.gov is the U.S. government's official web portal to all federal, state and local government web resources and services.